Fernandina Beach, FL

5:34 AM EST on December 10, 2019 (GMT -0500)
Fernandina Beach

Weather History for KFHB - October, 2019

Change the Weather History Date:

Thursday, October 17, 2019

  Actual Average (KNRB) Record (KNRB)
Temperature  
Mean Temperature 65 °F -  
Max Temperature 73 °F 76 °F 88 °F (2018)
Min Temperature 57 °F 64 °F 51 °F (2001)
Growing Degree Days 15 (Base 50)    
Moisture  
Dew Point 54 °F    
Average Humidity 68    
Maximum Humidity 90    
Minimum Humidity 38    
Precipitation  
Precipitation 0.00 in - - ()
Sea Level Pressure  
Sea Level Pressure 29.92 in    
Wind  
Wind Speed 8 mph (NW)    
Max Wind Speed 14 mph    
Max Gust Speed 18 mph    
Visibility 10 miles    
Events      
Averages and records for this station are not official NWS values.
T = Trace of Precipitation, MM = Missing Value Source: NWS Daily Summary

Daily Weather History Graph

Daily Weather History Graph

Search for Another Location

Airport or City:

Astronomy

Oct. 17, 2019 Rise Set
Actual Time 7:29 AM EDT 6:52 PM EDT
Civil Twilight 7:05 AM EDT 7:16 PM EDT
Nautical Twilight 6:37 AM EDT 7:44 PM EDT
Astronomical Twilight 6:09 AM EDT 8:12 PM EDT
Moon 9:36 PM EDT (10/17) 10:48 AM EDT (10/17)
Length of Visible Light 12h 11m
Length of Day
11h 23m
Waning Gibbous, 87% of the Moon is Illuminated
Oct 17
Waning Gibbous
Oct 21
Last Quarter
Oct 27
New
Nov 4
First Quarter
Nov 12
Full

Hourly Weather History & Observations

Time (EDT) Temp. Dew Point Humidity Pressure Visibility Wind Dir Wind Speed Gust Speed Precip Events Conditions
12:15 AM 72.5 °F 68.4 °F 87% 29.88 in 10.0 mi WNW 11.5 mph - N/A   Clear
12:35 AM 72.1 °F 68.0 °F 87% 29.88 in 10.0 mi NW 10.4 mph - N/A   Clear
12:55 AM 71.4 °F 67.6 °F 88% 29.89 in 10.0 mi NW 9.2 mph - N/A   Clear
1:15 AM 70.3 °F 67.3 °F 90% 29.89 in 10.0 mi NW 8.1 mph - N/A   Clear
1:35 AM 69.8 °F 66.7 °F 90% 29.89 in 10.0 mi NW 6.9 mph - N/A   Clear
1:55 AM 69.8 °F 65.8 °F 87% 29.89 in 10.0 mi NW 8.1 mph - N/A   Clear
2:15 AM 69.4 °F 64.9 °F 86% 29.89 in 10.0 mi NW 10.4 mph - N/A   Clear
2:35 AM 68.4 °F 63.7 °F 85% 29.90 in 10.0 mi NW 10.4 mph - N/A   Clear
2:55 AM 68.0 °F 62.6 °F 83% 29.89 in 10.0 mi NNW 10.4 mph - N/A   Clear
3:15 AM 67.1 °F 59.9 °F 78% 29.89 in 10.0 mi NNW 13.8 mph - N/A   Clear
3:35 AM 66.2 °F 59.0 °F 78% 29.89 in 10.0 mi NNW 12.7 mph - N/A   Clear
3:55 AM 65.1 °F 58.8 °F 80% 29.89 in 10.0 mi NNW 10.4 mph - N/A   Clear
4:15 AM 64.4 °F 57.0 °F 77% 29.90 in 10.0 mi NW 9.2 mph - N/A   Clear
4:35 AM 63.1 °F 57.0 °F 80% 29.89 in 10.0 mi NNW 9.2 mph - N/A   Clear
4:55 AM 62.4 °F 55.9 °F 79% 29.89 in 10.0 mi NNW 10.4 mph - N/A   Clear
5:15 AM 61.5 °F 54.9 °F 79% 29.90 in 10.0 mi NW 8.1 mph - N/A   Clear
5:35 AM 61.2 °F 54.3 °F 78% 29.90 in 10.0 mi NNW 6.9 mph - N/A   Clear
5:55 AM 59.4 °F 54.7 °F 84% 29.91 in 10.0 mi NW 6.9 mph - N/A   Clear
6:15 AM 58.5 °F 54.3 °F 86% 29.92 in 10.0 mi WNW 8.1 mph - N/A   Clear
6:35 AM 57.9 °F 54.7 °F 89% 29.92 in 10.0 mi NW 5.8 mph - N/A   Clear
6:55 AM 57.6 °F 54.5 °F 90% 29.93 in 10.0 mi NW 5.8 mph - N/A   Clear
7:15 AM 57.6 °F 54.0 °F 88% 29.93 in 10.0 mi NW 8.1 mph - N/A   Clear
7:35 AM 57.6 °F 53.6 °F 87% 29.94 in 10.0 mi NW 6.9 mph - N/A   Clear
7:55 AM 58.1 °F 52.7 °F 82% 29.94 in 10.0 mi NNW 10.4 mph - N/A   Clear
8:15 AM 58.1 °F 52.3 °F 81% 29.94 in 10.0 mi NNW 9.2 mph - N/A   Clear
8:35 AM 58.5 °F 52.0 °F 79% 29.95 in 10.0 mi NNW 8.1 mph - N/A   Clear
8:55 AM 58.8 °F 51.3 °F 76% 29.96 in 10.0 mi NNW 12.7 mph - N/A   Clear
9:15 AM 59.7 °F 51.8 °F 75% 29.97 in 10.0 mi NNW 10.4 mph - N/A   Clear
9:35 AM 59.7 °F 51.1 °F 73% 29.97 in 10.0 mi NW 9.2 mph - N/A   Clear
9:55 AM 61.3 °F 52.2 °F 72% 29.97 in 10.0 mi NNW 9.2 mph - N/A   Clear
10:15 AM 62.8 °F 51.1 °F 66% 29.98 in 10.0 mi NNW 6.9 mph - N/A   Clear
10:35 AM 64.0 °F 51.1 °F 63% 29.98 in 10.0 mi North 9.2 mph - N/A   Clear
10:55 AM 64.8 °F 50.9 °F 61% 29.98 in 10.0 mi NNW 9.2 mph - N/A   Clear
11:15 AM 65.8 °F 49.8 °F 56% 29.98 in 10.0 mi NNW 9.2 mph 18.4 mph N/A   Clear
11:35 AM 66.0 °F 49.3 °F 55% 29.98 in 10.0 mi NW 9.2 mph - N/A   Clear
11:55 AM 66.6 °F 49.1 °F 53% 29.98 in 10.0 mi North 8.1 mph - N/A   Clear
12:15 PM 66.7 °F 48.4 °F 52% 29.97 in 10.0 mi NW 8.1 mph - N/A   Clear
12:35 PM 68.2 °F 49.5 °F 51% 29.96 in 10.0 mi NW 5.8 mph - N/A   Clear
12:55 PM 68.2 °F 49.6 °F 51% 29.95 in 10.0 mi WNW 6.9 mph - N/A   Clear
1:15 PM 70.0 °F 48.7 °F 47% 29.94 in 10.0 mi NW 6.9 mph - N/A   Clear
1:35 PM 70.0 °F 46.4 °F 43% 29.93 in 10.0 mi NW 8.1 mph - N/A   Clear
1:55 PM 69.4 °F 47.3 °F 45% 29.93 in 10.0 mi NNW 4.6 mph - N/A   Clear
2:15 PM 70.5 °F 48.0 °F 45% 29.92 in 10.0 mi NW 5.8 mph - N/A   Clear
2:35 PM 72.0 °F 47.7 °F 42% 29.91 in 10.0 mi WSW 9.2 mph - N/A   Clear
3:15 PM 73.0 °F 46.0 °F 38% 29.90 in 10.0 mi West 9.2 mph - N/A   Clear
3:35 PM 73.2 °F 46.6 °F 39% 29.89 in 10.0 mi West 6.9 mph - N/A   Clear
3:55 PM 72.7 °F 46.6 °F 39% 29.89 in 10.0 mi WNW 5.8 mph - N/A   Clear
4:15 PM 73.0 °F 46.0 °F 38% 29.89 in 10.0 mi WSW 6.9 mph - N/A   Clear
4:35 PM 73.0 °F 45.7 °F 38% 29.89 in 10.0 mi West 9.2 mph - N/A   Clear
4:55 PM 72.7 °F 47.3 °F 40% 29.89 in 10.0 mi WNW 11.5 mph - N/A   Clear
5:15 PM 72.5 °F 46.0 °F 39% 29.90 in 10.0 mi West 9.2 mph - N/A   Clear
5:35 PM 71.4 °F 47.1 °F 42% 29.90 in 10.0 mi WNW 8.1 mph - N/A   Clear
5:55 PM 70.7 °F 49.3 °F 47% 29.91 in 10.0 mi WNW 5.8 mph - N/A   Clear
6:15 PM 69.3 °F 50.7 °F 52% 29.91 in 10.0 mi West 4.6 mph - N/A   Clear
6:35 PM 68.5 °F 51.1 °F 54% 29.91 in 10.0 mi West 3.5 mph - N/A   Clear
6:55 PM 67.3 °F 52.9 °F 60% 29.90 in 10.0 mi Calm Calm - N/A   Clear
7:15 PM 64.8 °F 53.8 °F 68% 29.90 in 10.0 mi Calm Calm - N/A   Clear
7:35 PM 63.5 °F 54.0 °F 71% 29.91 in 10.0 mi Calm Calm - N/A   Clear
7:55 PM 64.0 °F 53.4 °F 68% 29.91 in 10.0 mi Calm Calm - N/A   Clear
8:15 PM 64.0 °F 54.0 °F 70% 29.91 in 10.0 mi NW 3.5 mph - N/A   Clear
8:35 PM 63.3 °F 54.0 °F 71% 29.91 in 10.0 mi Calm Calm - N/A   Clear
8:55 PM 63.3 °F 54.1 °F 72% 29.91 in 10.0 mi Calm Calm - N/A   Clear
9:15 PM 62.8 °F 55.2 °F 76% 29.91 in 10.0 mi Calm Calm - N/A   Clear
9:35 PM 62.1 °F 55.2 °F 78% 29.92 in 10.0 mi Calm Calm - N/A   Clear
9:55 PM 62.2 °F 54.9 °F 77% 29.92 in 10.0 mi Calm Calm - N/A   Clear
10:15 PM 61.9 °F 55.4 °F 79% 29.94 in 10.0 mi Calm Calm - N/A   Clear
10:35 PM 63.0 °F 53.4 °F 71% 29.94 in 10.0 mi WNW 3.5 mph - N/A   Clear
10:55 PM 62.1 °F 54.7 °F 77% 29.95 in 10.0 mi Calm Calm - N/A   Clear
11:15 PM 60.3 °F 53.8 °F 79% 29.95 in 10.0 mi Calm Calm - N/A   Clear
11:35 PM 61.7 °F 53.8 °F 75% 29.95 in 10.0 mi Calm Calm - N/A   Clear
11:55 PM 60.6 °F 54.0 °F 79% 29.96 in 10.0 mi Calm Calm - N/A   Clear